Retour au catalogue

STARLINK-32279

ActifCommunicationsVLEO
NORAD 61003·PAYLOAD·🇺🇸 United States

Lancé Sep 5, 2024 depuis Cape Canaveral Space Force Station

Loading…

Prochains Passages (prochaines 24 heures)

TLE

FraisSource: CelesTrak SupGP

Époque: Sep 14, 2026, 21:09 UTC

1 61003C 24158P   26257.88173611  .00054049  00000+0  15974-2 0  2573
2 61003  53.1567 263.6582 0001156  95.4815 173.2298 15.34354073    14

Suivez STARLINK-32279 en temps réel avec AllMySat

Download on the App Store